Погода в Оберхаузене

Германия     51°28′32″N   6°51′55″E
темп.,
°C
ветер,
м/с
пор.,
м/с
влажн.,
%
обл.,
%
осадки,
мм/ч
давл.,
гПа
погр.,
м
16 апреля, пт
пт1623:00+4св386911 0.0 1030240
02:00+2ссв268141 0.0 1029147
05:00+1ссв238096 0.0 102980
08:00+4св2468100 0.0 1029199
11:00+8ссв354763 0.0 10281123
14:00+11ссв463895 0.0 10272026
17:00+11ссв4646100 0.0 10261735
20:00+10ссв485697 0.0 1026525
17 апреля, сб
сб1723:00+6св386566 0.0 1027329
02:00+4ссв367568 0.0 1027157
05:00+2ссв25827 0.0 1027104
08:00+4ссв257953 0.0 1027188
11:00+9с35565 0.0 10261073
14:00+12ссв45355 0.0 10241652
17:00+13ссв4544100 0.0 10231898
20:00+10с3766100 0.0 1023290
18 апреля, вс
вс1823:00+9св2672100 0.0 1024346
02:00+8св2576100 0.0 1023238
05:00+7ссв2477100 0.0 1023153
08:00+7ссв2378100 0.0 1023197
11:00+12ссв236147 0.0 1023971
14:00+11с4468100 0.3 10221077
17:00+8ссв3585100 0.1 1022459
20:00+8св248499 0.1 1022346
19 апреля, пн
пн1923:00+6ссв119293 0.0 102221
02:00+6ссв1194100 0.0 102112
05:00+7ссз1192100 0.0 102113
08:00+7с1290100 0.1 1020102
11:00+9в1283100 0.1 1020376
14:00+12ссв117166 0.2 1019646
17:00+15юв125231 0.0 10171367
20:00+12вюв116555 0.1 101715
20 апреля, вт
вт2023:00+9вюв117910 0.0 101711
02:00+7в11886 0.0 101610
05:00+6в11915 0.0 101613
08:00+8ю12815 0.0 101590
11:00+14ююз11555 0.0 1014790
14:00+17юз224041 0.1 10131835
17:00+17з22376 0.0 10112161
20:00+14сз225745 0.0 101143